owner,sensor,date,latitude,longitude,vertical_datum,wind_speed,wind_to_direction,wind_speed_of_gust,qcFlag 
WAVCIS,ioos:station:WAVCIS:CSI09:1,2010-08-01T00:00:00Z,29.1015,-89.9782,0.0,5.576,240.0,,'11111222,11111222,99999999' 
WAVCIS,ioos:station:WAVCIS:CSI09:1,2010-08-01T01:00:00Z,29.1015,-89.9782,0.0,5.652,243.0,,'11111222,11111222,99999999' 
WAVCIS,ioos:station:WAVCIS:CSI09:1,2010-08-01T02:00:00Z,29.1015,-89.9782,0.0,5.865,245.0,,'11111222,11111222,99999999' 
WAVCIS,ioos:station:WAVCIS:CSI09:1,2010-08-01T03:00:00Z,29.1015,-89.9782,0.0,5.952,248.0,,'11111222,11111222,99999999' 
WAVCIS,ioos:station:WAVCIS:CSI09:1,2010-08-01T04:00:00Z,29.1015,-89.9782,0.0,6.25,259.0,,'11111222,11111222,99999999' 
WAVCIS,ioos:station:WAVCIS:CSI09:1,2010-08-01T05:00:00Z,29.1015,-89.9782,0.0,6.46,271.0,,'11111222,11111222,99999999' 
WAVCIS,ioos:station:WAVCIS:CSI09:1,2010-08-01T06:00:00Z,29.1015,-89.9782,0.0,6.228,279.0,,'11111222,11111222,99999999' 
WAVCIS,ioos:station:WAVCIS:CSI09:1,2010-08-01T07:00:00Z,29.1015,-89.9782,0.0,6.868,289.0,,'11111222,11111222,99999999' 
WAVCIS,ioos:station:WAVCIS:CSI09:1,2010-08-01T08:00:00Z,29.1015,-89.9782,0.0,7.4,293.0,,'11111222,11111222,99999999' 
WAVCIS,ioos:station:WAVCIS:CSI09:1,2010-08-01T09:00:00Z,29.1015,-89.9782,0.0,7.55,300.0,,'11111222,11111222,99999999' 
WAVCIS,ioos:station:WAVCIS:CSI09:1,2010-08-01T10:00:00Z,29.1015,-89.9782,0.0,7.53,302.0,,'11111222,11111222,99999999' 
WAVCIS,ioos:station:WAVCIS:CSI09:1,2010-08-01T11:00:00Z,29.1015,-89.9782,0.0,7.11,308.0,,'11111222,11111222,99999999' 
WAVCIS,ioos:station:WAVCIS:CSI09:1,2010-08-01T12:00:00Z,29.1015,-89.9782,0.0,7.26,315.0,,'11111222,11111222,99999999' 
WAVCIS,ioos:station:WAVCIS:CSI09:1,2010-08-01T13:00:00Z,29.1015,-89.9782,0.0,7.26,327.0,,'11111222,11111222,99999999' 
WAVCIS,ioos:station:WAVCIS:CSI09:1,2010-08-01T14:00:00Z,29.1015,-89.9782,0.0,5.794,337.0,,'11111222,11111222,99999999' 
WAVCIS,ioos:station:WAVCIS:CSI09:1,2010-08-01T15:00:00Z,29.1015,-89.9782,0.0,5.892,348.0,,'11111222,11111222,99999999' 
WAVCIS,ioos:station:WAVCIS:CSI09:1,2010-08-01T16:00:00Z,29.1015,-89.9782,0.0,4.309,349.0,,'11111222,11111222,99999999' 
WAVCIS,ioos:station:WAVCIS:CSI09:1,2010-08-01T17:00:00Z,29.1015,-89.9782,0.0,2.377,13.0,,'11111222,11111222,99999999' 
WAVCIS,ioos:station:WAVCIS:CSI09:1,2010-08-01T18:00:00Z,29.1015,-89.9782,0.0,1.828,23.0,,'11111222,11111222,99999999' 
WAVCIS,ioos:station:WAVCIS:CSI09:1,2010-08-01T19:00:00Z,29.1015,-89.9782,0.0,0.774,72.0,,'11111222,11111222,99999999' 
WAVCIS,ioos:station:WAVCIS:CSI09:1,2010-08-01T20:00:00Z,29.1015,-89.9782,0.0,1.171,114.0,,'11111222,11111222,99999999' 
WAVCIS,ioos:station:WAVCIS:CSI09:1,2010-08-01T21:00:00Z,29.1015,-89.9782,0.0,1.607,140.0,,'11111222,11111222,99999999' 
WAVCIS,ioos:station:WAVCIS:CSI09:1,2010-08-01T22:00:00Z,29.1015,-89.9782,0.0,1.33,128.0,,'11111222,11111222,99999999' 
WAVCIS,ioos:station:WAVCIS:CSI09:1,2010-08-01T23:00:00Z,29.1015,-89.9782,0.0,1.018,129.0,,'11111222,11111222,99999999' 
WAVCIS,ioos:station:WAVCIS:CSI09:1,2010-08-02T00:00:00Z,29.1015,-89.9782,0.0,1.313,149.0,,'11111222,11111222,99999999' 
WAVCIS,ioos:station:WAVCIS:CSI09:1,2010-08-02T01:00:00Z,29.1015,-89.9782,0.0,1.335,161.0,,'11111222,11111222,99999999' 
WAVCIS,ioos:station:WAVCIS:CSI09:1,2010-08-02T02:00:00Z,29.1015,-89.9782,0.0,1.268,184.0,,'11111222,11111222,99999999' 
WAVCIS,ioos:station:WAVCIS:CSI09:1,2010-08-02T03:00:00Z,29.1015,-89.9782,0.0,1.962,240.0,,'11111222,11111222,99999999' 
WAVCIS,ioos:station:WAVCIS:CSI09:1,2010-08-02T04:00:00Z,29.1015,-89.9782,0.0,2.189,249.0,,'11111222,11111222,99999999' 
WAVCIS,ioos:station:WAVCIS:CSI09:1,2010-08-02T05:00:00Z,29.1015,-89.9782,0.0,3.127,243.0,,'11111222,11111222,99999999' 
WAVCIS,ioos:station:WAVCIS:CSI09:1,2010-08-02T06:00:00Z,29.1015,-89.9782,0.0,3.875,255.0,,'11111222,11111222,99999999' 
WAVCIS,ioos:station:WAVCIS:CSI09:1,2010-08-02T07:00:00Z,29.1015,-89.9782,0.0,3.883,271.0,,'11111222,11111222,99999999' 
WAVCIS,ioos:station:WAVCIS:CSI09:1,2010-08-02T08:00:00Z,29.1015,-89.9782,0.0,3.421,287.0,,'11111222,11111222,99999999' 
WAVCIS,ioos:station:WAVCIS:CSI09:1,2010-08-02T09:00:00Z,29.1015,-89.9782,0.0,3.841,315.0,,'11111222,11111222,99999999' 
WAVCIS,ioos:station:WAVCIS:CSI09:1,2010-08-02T10:00:00Z,29.1015,-89.9782,0.0,4.798,318.0,,'11111222,11111222,99999999' 
WAVCIS,ioos:station:WAVCIS:CSI09:1,2010-08-02T11:00:00Z,29.1015,-89.9782,0.0,5.696,331.0,,'11111222,11111222,99999999' 
WAVCIS,ioos:station:WAVCIS:CSI09:1,2010-08-02T12:00:00Z,29.1015,-89.9782,0.0,6.424,330.0,,'11111222,11111222,99999999' 
WAVCIS,ioos:station:WAVCIS:CSI09:1,2010-08-02T13:00:00Z,29.1015,-89.9782,0.0,5.723,337.0,,'11111222,11111222,99999999' 
WAVCIS,ioos:station:WAVCIS:CSI09:1,2010-08-02T14:00:00Z,29.1015,-89.9782,0.0,4.84,345.0,,'11111222,11111222,99999999' 
WAVCIS,ioos:station:WAVCIS:CSI09:1,2010-08-02T15:00:00Z,29.1015,-89.9782,0.0,4.842,340.0,,'11111222,11111222,99999999' 
WAVCIS,ioos:station:WAVCIS:CSI09:1,2010-08-02T16:00:00Z,29.1015,-89.9782,0.0,2.595,350.0,,'11111222,11111222,99999999' 
WAVCIS,ioos:station:WAVCIS:CSI09:1,2010-08-02T17:00:00Z,29.1015,-89.9782,0.0,1.84,0.0,,'11111222,11111222,99999999' 
WAVCIS,ioos:station:WAVCIS:CSI09:1,2010-08-02T18:00:00Z,29.1015,-89.9782,0.0,1.417,78.0,,'11111222,11111222,99999999' 
WAVCIS,ioos:station:WAVCIS:CSI09:1,2010-08-02T19:00:00Z,29.1015,-89.9782,0.0,1.89,131.0,,'11111222,11111222,99999999' 
WAVCIS,ioos:station:WAVCIS:CSI09:1,2010-08-02T20:00:00Z,29.1015,-89.9782,0.0,2.237,122.0,,'11111222,11111222,99999999' 
WAVCIS,ioos:station:WAVCIS:CSI09:1,2010-08-02T21:00:00Z,29.1015,-89.9782,0.0,3.17,152.0,,'11111222,11111222,99999999' 
WAVCIS,ioos:station:WAVCIS:CSI09:1,2010-08-02T22:00:00Z,29.1015,-89.9782,0.0,2.827,157.0,,'11111222,11111222,99999999' 
WAVCIS,ioos:station:WAVCIS:CSI09:1,2010-08-02T23:00:00Z,29.1015,-89.9782,0.0,3.544,177.0,,'11111222,11111222,99999999' 
WAVCIS,ioos:station:WAVCIS:CSI09:1,2010-08-03T00:00:00Z,29.1015,-89.9782,0.0,4.31,167.0,,'11111222,11111222,99999999' 
WAVCIS,ioos:station:WAVCIS:CSI09:1,2010-08-03T01:00:00Z,29.1015,-89.9782,0.0,4.036,153.0,,'11111222,11111222,99999999' 
WAVCIS,ioos:station:WAVCIS:CSI09:1,2010-08-03T02:00:00Z,29.1015,-89.9782,0.0,4.772,169.0,,'11111222,11111222,99999999' 
WAVCIS,ioos:station:WAVCIS:CSI09:1,2010-08-03T03:00:00Z,29.1015,-89.9782,0.0,5.018,176.0,,'11111222,11111222,99999999' 
WAVCIS,ioos:station:WAVCIS:CSI09:1,2010-08-03T04:00:00Z,29.1015,-89.9782,0.0,5.457,173.0,,'11111222,11111222,99999999' 
WAVCIS,ioos:station:WAVCIS:CSI09:1,2010-08-03T05:00:00Z,29.1015,-89.9782,0.0,2.963,193.0,,'11111222,11111222,99999999' 
WAVCIS,ioos:station:WAVCIS:CSI09:1,2010-08-03T06:00:00Z,29.1015,-89.9782,0.0,2.285,193.0,,'11111222,11111222,99999999' 
WAVCIS,ioos:station:WAVCIS:CSI09:1,2010-08-03T07:00:00Z,29.1015,-89.9782,0.0,2.699,193.0,,'11111222,11111222,99999999' 
WAVCIS,ioos:station:WAVCIS:CSI09:1,2010-08-03T08:00:00Z,29.1015,-89.9782,0.0,2.268,212.0,,'11111222,11111222,99999999' 
WAVCIS,ioos:station:WAVCIS:CSI09:1,2010-08-03T09:00:00Z,29.1015,-89.9782,0.0,2.854,225.0,,'11111222,11111222,99999999' 
WAVCIS,ioos:station:WAVCIS:CSI09:1,2010-08-03T10:00:00Z,29.1015,-89.9782,0.0,3.089,221.0,,'11111222,11111222,99999999' 
WAVCIS,ioos:station:WAVCIS:CSI09:1,2010-08-03T11:00:00Z,29.1015,-89.9782,0.0,2.202,201.0,,'11111222,11111222,99999999' 
WAVCIS,ioos:station:WAVCIS:CSI09:1,2010-08-03T12:00:00Z,29.1015,-89.9782,0.0,4.169,173.0,,'11111222,11111222,99999999' 
WAVCIS,ioos:station:WAVCIS:CSI09:1,2010-08-03T13:00:00Z,29.1015,-89.9782,0.0,2.103,223.0,,'11111222,11111222,99999999' 
WAVCIS,ioos:station:WAVCIS:CSI09:1,2010-08-03T14:00:00Z,29.1015,-89.9782,0.0,1.797,340.0,,'11111222,11111222,99999999' 
WAVCIS,ioos:station:WAVCIS:CSI09:1,2010-08-03T15:00:00Z,29.1015,-89.9782,0.0,3.819,32.0,,'11111222,11111222,99999999' 
WAVCIS,ioos:station:WAVCIS:CSI09:1,2010-08-03T16:00:00Z,29.1015,-89.9782,0.0,2.338,60.0,,'11111222,11111222,99999999' 
WAVCIS,ioos:station:WAVCIS:CSI09:1,2010-08-03T17:00:00Z,29.1015,-89.9782,0.0,0.948,146.0,,'11111222,11111222,99999999' 
WAVCIS,ioos:station:WAVCIS:CSI09:1,2010-08-03T18:00:00Z,29.1015,-89.9782,0.0,1.235,149.0,,'11111222,11111222,99999999' 
WAVCIS,ioos:station:WAVCIS:CSI09:1,2010-08-03T19:00:00Z,29.1015,-89.9782,0.0,1.757,136.0,,'11111222,11111222,99999999' 
WAVCIS,ioos:station:WAVCIS:CSI09:1,2010-08-03T20:00:00Z,29.1015,-89.9782,0.0,2.5,140.0,,'11111222,11111222,99999999' 
WAVCIS,ioos:station:WAVCIS:CSI09:1,2010-08-03T21:00:00Z,29.1015,-89.9782,0.0,3.105,163.0,,'11111222,11111222,99999999' 
WAVCIS,ioos:station:WAVCIS:CSI09:1,2010-08-03T22:00:00Z,29.1015,-89.9782,0.0,1.996,189.0,,'11111222,11111222,99999999' 
WAVCIS,ioos:station:WAVCIS:CSI09:1,2010-08-03T23:00:00Z,29.1015,-89.9782,0.0,3.314,172.0,,'11111222,11111222,99999999' 
WAVCIS,ioos:station:WAVCIS:CSI09:1,2010-08-04T00:00:00Z,29.1015,-89.9782,0.0,2.82,170.0,,'11111222,11111222,99999999' 
WAVCIS,ioos:station:WAVCIS:CSI09:1,2010-08-04T01:00:00Z,29.1015,-89.9782,0.0,2.634,171.0,,'11111222,11111222,99999999' 
WAVCIS,ioos:station:WAVCIS:CSI09:1,2010-08-04T02:00:00Z,29.1015,-89.9782,0.0,2.965,172.0,,'11111222,11111222,99999999' 
WAVCIS,ioos:station:WAVCIS:CSI09:1,2010-08-04T03:00:00Z,29.1015,-89.9782,0.0,1.599,231.0,,'11111222,11111222,99999999' 
WAVCIS,ioos:station:WAVCIS:CSI09:1,2010-08-04T04:00:00Z,29.1015,-89.9782,0.0,2.242,186.0,,'11111222,11111222,99999999' 
WAVCIS,ioos:station:WAVCIS:CSI09:1,2010-08-04T05:00:00Z,29.1015,-89.9782,0.0,2.832,218.0,,'11111222,11111222,99999999' 
WAVCIS,ioos:station:WAVCIS:CSI09:1,2010-08-04T06:00:00Z,29.1015,-89.9782,0.0,3.197,218.0,,'11111222,11111222,99999999' 
WAVCIS,ioos:station:WAVCIS:CSI09:1,2010-08-04T07:00:00Z,29.1015,-89.9782,0.0,4.014,236.0,,'11111222,11111222,99999999' 
WAVCIS,ioos:station:WAVCIS:CSI09:1,2010-08-04T08:00:00Z,29.1015,-89.9782,0.0,3.937,253.0,,'11111222,11111222,99999999' 
WAVCIS,ioos:station:WAVCIS:CSI09:1,2010-08-04T09:00:00Z,29.1015,-89.9782,0.0,3.836,292.0,,'11111222,11111222,99999999' 
WAVCIS,ioos:station:WAVCIS:CSI09:1,2010-08-04T10:00:00Z,29.1015,-89.9782,0.0,2.931,289.0,,'11111222,11111222,99999999' 
WAVCIS,ioos:station:WAVCIS:CSI09:1,2010-08-04T11:00:00Z,29.1015,-89.9782,0.0,2.429,277.0,,'11111222,11111222,99999999' 
WAVCIS,ioos:station:WAVCIS:CSI09:1,2010-08-04T12:00:00Z,29.1015,-89.9782,0.0,2.502,284.0,,'11111222,11111222,99999999' 
WAVCIS,ioos:station:WAVCIS:CSI09:1,2010-08-04T13:00:00Z,29.1015,-89.9782,0.0,1.747,297.0,,'11111222,11111222,99999999' 
WAVCIS,ioos:station:WAVCIS:CSI09:1,2010-08-04T14:00:00Z,29.1015,-89.9782,0.0,1.926,326.0,,'11111222,11111222,99999999' 
WAVCIS,ioos:station:WAVCIS:CSI09:1,2010-08-04T15:00:00Z,29.1015,-89.9782,0.0,3.135,350.0,,'11111222,11111222,99999999' 
WAVCIS,ioos:station:WAVCIS:CSI09:1,2010-08-04T16:00:00Z,29.1015,-89.9782,0.0,4.235,9.0,,'11111222,11111222,99999999' 
WAVCIS,ioos:station:WAVCIS:CSI09:1,2010-08-04T17:00:00Z,29.1015,-89.9782,0.0,3.921,1.0,,'11111222,11111222,99999999' 
WAVCIS,ioos:station:WAVCIS:CSI09:1,2010-08-04T18:00:00Z,29.1015,-89.9782,0.0,3.08,356.0,,'11111222,11111222,99999999' 
WAVCIS,ioos:station:WAVCIS:CSI09:1,2010-08-04T19:00:00Z,29.1015,-89.9782,0.0,1.177,53.0,,'11111222,11111222,99999999' 
WAVCIS,ioos:station:WAVCIS:CSI09:1,2010-08-04T20:00:00Z,29.1015,-89.9782,0.0,0.571,113.0,,'11111222,11111222,99999999' 
WAVCIS,ioos:station:WAVCIS:CSI09:1,2010-08-04T21:00:00Z,29.1015,-89.9782,0.0,1.213,198.0,,'11111222,11111222,99999999' 
WAVCIS,ioos:station:WAVCIS:CSI09:1,2010-08-04T22:00:00Z,29.1015,-89.9782,0.0,1.703,195.0,,'11111222,11111222,99999999' 
WAVCIS,ioos:station:WAVCIS:CSI09:1,2010-08-04T23:00:00Z,29.1015,-89.9782,0.0,3.078,240.0,,'11111222,11111222,99999999' 
WAVCIS,ioos:station:WAVCIS:CSI09:1,2010-08-05T00:00:00Z,29.1015,-89.9782,0.0,2.661,232.0,,'11111222,11111222,99999999' 
WAVCIS,ioos:station:WAVCIS:CSI09:1,2010-08-05T01:00:00Z,29.1015,-89.9782,0.0,2.402,226.0,,'11111222,11111222,99999999' 
WAVCIS,ioos:station:WAVCIS:CSI09:1,2010-08-05T02:00:00Z,29.1015,-89.9782,0.0,2.672,238.0,,'11111222,11111222,99999999' 
WAVCIS,ioos:station:WAVCIS:CSI09:1,2010-08-05T03:00:00Z,29.1015,-89.9782,0.0,1.764,190.0,,'11111222,11111222,99999999' 
WAVCIS,ioos:station:WAVCIS:CSI09:1,2010-08-05T04:00:00Z,29.1015,-89.9782,0.0,1.18,191.0,,'11111222,11111222,99999999' 
WAVCIS,ioos:station:WAVCIS:CSI09:1,2010-08-05T05:00:00Z,29.1015,-89.9782,0.0,2.154,340.0,,'11111222,11111222,99999999' 
WAVCIS,ioos:station:WAVCIS:CSI09:1,2010-08-05T06:00:00Z,29.1015,-89.9782,0.0,1.197,0.0,,'11111222,11111222,99999999' 
WAVCIS,ioos:station:WAVCIS:CSI09:1,2010-08-05T07:00:00Z,29.1015,-89.9782,0.0,4.282,339.0,,'11111222,11111222,99999999' 
WAVCIS,ioos:station:WAVCIS:CSI09:1,2010-08-05T08:00:00Z,29.1015,-89.9782,0.0,2.976,2.0,,'11111222,11111222,99999999' 
WAVCIS,ioos:station:WAVCIS:CSI09:1,2010-08-05T09:00:00Z,29.1015,-89.9782,0.0,0.786,64.0,,'11111222,11111222,99999999' 
WAVCIS,ioos:station:WAVCIS:CSI09:1,2010-08-05T10:00:00Z,29.1015,-89.9782,0.0,0.981,118.0,,'11111222,11111222,99999999' 
WAVCIS,ioos:station:WAVCIS:CSI09:1,2010-08-05T11:00:00Z,29.1015,-89.9782,0.0,1.25,254.0,,'11111222,11111222,99999999' 
WAVCIS,ioos:station:WAVCIS:CSI09:1,2010-08-05T12:00:00Z,29.1015,-89.9782,0.0,3.378,347.0,,'11111222,11111222,99999999' 
WAVCIS,ioos:station:WAVCIS:CSI09:1,2010-08-05T13:00:00Z,29.1015,-89.9782,0.0,2.433,333.0,,'11111222,11111222,99999999' 
WAVCIS,ioos:station:WAVCIS:CSI09:1,2010-08-05T14:00:00Z,29.1015,-89.9782,0.0,2.215,354.0,,'11111222,11111222,99999999' 
WAVCIS,ioos:station:WAVCIS:CSI09:1,2010-08-05T15:00:00Z,29.1015,-89.9782,0.0,5.673,146.0,,'11111222,11111222,99999999' 
WAVCIS,ioos:station:WAVCIS:CSI09:1,2010-08-05T16:00:00Z,29.1015,-89.9782,0.0,2.584,235.0,,'11111222,11111222,99999999' 
WAVCIS,ioos:station:WAVCIS:CSI09:1,2010-08-05T17:00:00Z,29.1015,-89.9782,0.0,2.656,230.0,,'11111222,11111222,99999999' 
WAVCIS,ioos:station:WAVCIS:CSI09:1,2010-08-05T18:00:00Z,29.1015,-89.9782,0.0,2.801,237.0,,'11111222,11111222,99999999' 
WAVCIS,ioos:station:WAVCIS:CSI09:1,2010-08-05T19:00:00Z,29.1015,-89.9782,0.0,3.445,279.0,,'11111222,11111222,99999999' 
WAVCIS,ioos:station:WAVCIS:CSI09:1,2010-08-05T20:00:00Z,29.1015,-89.9782,0.0,1.606,315.0,,'11111222,11111222,99999999' 
WAVCIS,ioos:station:WAVCIS:CSI09:1,2010-08-05T21:00:00Z,29.1015,-89.9782,0.0,3.518,344.0,,'11111222,11111222,99999999' 
WAVCIS,ioos:station:WAVCIS:CSI09:1,2010-08-05T22:00:00Z,29.1015,-89.9782,0.0,0.856,353.0,,'11111222,11111222,99999999' 
WAVCIS,ioos:station:WAVCIS:CSI09:1,2010-08-05T23:00:00Z,29.1015,-89.9782,0.0,0.66,287.0,,'11111222,11111222,99999999' 
WAVCIS,ioos:station:WAVCIS:CSI09:1,2010-08-06T00:00:00Z,29.1015,-89.9782,0.0,1.044,322.0,,'11111222,11111222,99999999' 
WAVCIS,ioos:station:WAVCIS:CSI09:1,2010-08-06T01:00:00Z,29.1015,-89.9782,0.0,1.311,258.0,,'11111222,11111222,99999999' 
WAVCIS,ioos:station:WAVCIS:CSI09:1,2010-08-06T02:00:00Z,29.1015,-89.9782,0.0,2.519,157.0,,'11111222,11111222,99999999' 
WAVCIS,ioos:station:WAVCIS:CSI09:1,2010-08-06T03:00:00Z,29.1015,-89.9782,0.0,5.837,18.0,,'11111222,11111222,99999999' 
WAVCIS,ioos:station:WAVCIS:CSI09:1,2010-08-06T04:00:00Z,29.1015,-89.9782,0.0,0.858,34.0,,'11111222,11111222,99999999' 
WAVCIS,ioos:station:WAVCIS:CSI09:1,2010-08-06T05:00:00Z,29.1015,-89.9782,0.0,1.614,182.0,,'11111222,11111222,99999999' 
WAVCIS,ioos:station:WAVCIS:CSI09:1,2010-08-06T06:00:00Z,29.1015,-89.9782,0.0,3.08,217.0,,'11111222,11111222,99999999' 
WAVCIS,ioos:station:WAVCIS:CSI09:1,2010-08-06T07:00:00Z,29.1015,-89.9782,0.0,4.378,224.0,,'11111222,11111222,99999999' 
WAVCIS,ioos:station:WAVCIS:CSI09:1,2010-08-06T08:00:00Z,29.1015,-89.9782,0.0,4.844,233.0,,'11111222,11111222,99999999' 
WAVCIS,ioos:station:WAVCIS:CSI09:1,2010-08-06T09:00:00Z,29.1015,-89.9782,0.0,6.193,302.0,,'11111222,11111222,99999999' 
WAVCIS,ioos:station:WAVCIS:CSI09:1,2010-08-06T10:00:00Z,29.1015,-89.9782,0.0,5.016,308.0,,'11111222,11111222,99999999' 
WAVCIS,ioos:station:WAVCIS:CSI09:1,2010-08-06T11:00:00Z,29.1015,-89.9782,0.0,2.949,323.0,,'11111222,11111222,99999999' 
WAVCIS,ioos:station:WAVCIS:CSI09:1,2010-08-06T12:00:00Z,29.1015,-89.9782,0.0,3.162,318.0,,'11111222,11111222,99999999' 
WAVCIS,ioos:station:WAVCIS:CSI09:1,2010-08-06T13:00:00Z,29.1015,-89.9782,0.0,4.668,295.0,,'11111222,11111222,99999999' 
WAVCIS,ioos:station:WAVCIS:CSI09:1,2010-08-06T14:00:00Z,29.1015,-89.9782,0.0,4.573,322.0,,'11111222,11111222,99999999' 
WAVCIS,ioos:station:WAVCIS:CSI09:1,2010-08-06T15:00:00Z,29.1015,-89.9782,0.0,4.055,320.0,,'11111222,11111222,99999999' 
WAVCIS,ioos:station:WAVCIS:CSI09:1,2010-08-06T16:00:00Z,29.1015,-89.9782,0.0,3.647,320.0,,'11111222,11111222,99999999' 
WAVCIS,ioos:station:WAVCIS:CSI09:1,2010-08-06T17:00:00Z,29.1015,-89.9782,0.0,2.974,313.0,,'11111222,11111222,99999999' 
WAVCIS,ioos:station:WAVCIS:CSI09:1,2010-08-06T18:00:00Z,29.1015,-89.9782,0.0,3.037,294.0,,'11111222,11111222,99999999' 
WAVCIS,ioos:station:WAVCIS:CSI09:1,2010-08-06T19:00:00Z,29.1015,-89.9782,0.0,3.562,272.0,,'11111222,11111222,99999999' 
WAVCIS,ioos:station:WAVCIS:CSI09:1,2010-08-06T20:00:00Z,29.1015,-89.9782,0.0,3.185,261.0,,'11111222,11111222,99999999' 
WAVCIS,ioos:station:WAVCIS:CSI09:1,2010-08-06T21:00:00Z,29.1015,-89.9782,0.0,3.491,244.0,,'11111222,11111222,99999999' 
WAVCIS,ioos:station:WAVCIS:CSI09:1,2010-08-06T22:00:00Z,29.1015,-89.9782,0.0,2.35,225.0,,'11111222,11111222,99999999' 
WAVCIS,ioos:station:WAVCIS:CSI09:1,2010-08-06T23:00:00Z,29.1015,-89.9782,0.0,3.641,232.0,,'11111222,11111222,99999999' 
WAVCIS,ioos:station:WAVCIS:CSI09:1,2010-08-07T00:00:00Z,29.1015,-89.9782,0.0,3.997,236.0,,'11111222,11111222,99999999' 
WAVCIS,ioos:station:WAVCIS:CSI09:1,2010-08-07T01:00:00Z,29.1015,-89.9782,0.0,4.68,234.0,,'11111222,11111222,99999999' 
WAVCIS,ioos:station:WAVCIS:CSI09:1,2010-08-07T02:00:00Z,29.1015,-89.9782,0.0,5.42,238.0,,'11111222,11111222,99999999' 
WAVCIS,ioos:station:WAVCIS:CSI09:1,2010-08-07T03:00:00Z,29.1015,-89.9782,0.0,6.808,275.0,,'11111222,11111222,99999999' 
WAVCIS,ioos:station:WAVCIS:CSI09:1,2010-08-07T04:00:00Z,29.1015,-89.9782,0.0,5.31,262.0,,'11111222,11111222,99999999' 
WAVCIS,ioos:station:WAVCIS:CSI09:1,2010-08-07T05:00:00Z,29.1015,-89.9782,0.0,5.207,246.0,,'11111222,11111222,99999999' 
WAVCIS,ioos:station:WAVCIS:CSI09:1,2010-08-07T06:00:00Z,29.1015,-89.9782,0.0,4.663,292.0,,'11111222,11111222,99999999' 
WAVCIS,ioos:station:WAVCIS:CSI09:1,2010-08-07T07:00:00Z,29.1015,-89.9782,0.0,4.578,277.0,,'11111222,11111222,99999999' 
WAVCIS,ioos:station:WAVCIS:CSI09:1,2010-08-07T08:00:00Z,29.1015,-89.9782,0.0,6.062,246.0,,'11111222,11111222,99999999' 
WAVCIS,ioos:station:WAVCIS:CSI09:1,2010-08-07T09:00:00Z,29.1015,-89.9782,0.0,5.643,288.0,,'11111222,11111222,99999999' 
WAVCIS,ioos:station:WAVCIS:CSI09:1,2010-08-07T10:00:00Z,29.1015,-89.9782,0.0,3.819,302.0,,'11111222,11111222,99999999' 
WAVCIS,ioos:station:WAVCIS:CSI09:1,2010-08-07T11:00:00Z,29.1015,-89.9782,0.0,9.36,293.0,,'11111222,11111222,99999999' 
WAVCIS,ioos:station:WAVCIS:CSI09:1,2010-08-07T12:00:00Z,29.1015,-89.9782,0.0,3.497,293.0,,'11111222,11111222,99999999' 
WAVCIS,ioos:station:WAVCIS:CSI09:1,2010-08-07T13:00:00Z,29.1015,-89.9782,0.0,3.929,319.0,,'11111222,11111222,99999999' 
WAVCIS,ioos:station:WAVCIS:CSI09:1,2010-08-07T14:00:00Z,29.1015,-89.9782,0.0,5.252,315.0,,'11111222,11111222,99999999' 
WAVCIS,ioos:station:WAVCIS:CSI09:1,2010-08-07T15:00:00Z,29.1015,-89.9782,0.0,5.131,317.0,,'11111222,11111222,99999999' 
WAVCIS,ioos:station:WAVCIS:CSI09:1,2010-08-07T16:00:00Z,29.1015,-89.9782,0.0,4.864,326.0,,'11111222,11111222,99999999' 
WAVCIS,ioos:station:WAVCIS:CSI09:1,2010-08-07T17:00:00Z,29.1015,-89.9782,0.0,3.435,318.0,,'11111222,11111222,99999999' 
WAVCIS,ioos:station:WAVCIS:CSI09:1,2010-08-07T18:00:00Z,29.1015,-89.9782,0.0,1.352,326.0,,'11111222,11111222,99999999' 
WAVCIS,ioos:station:WAVCIS:CSI09:1,2010-08-07T19:00:00Z,29.1015,-89.9782,0.0,1.615,236.0,,'11111222,11111222,99999999' 
WAVCIS,ioos:station:WAVCIS:CSI09:1,2010-08-07T20:00:00Z,29.1015,-89.9782,0.0,1.798,204.0,,'11111222,11111222,99999999' 
WAVCIS,ioos:station:WAVCIS:CSI09:1,2010-08-07T21:00:00Z,29.1015,-89.9782,0.0,2.462,219.0,,'11111222,11111222,99999999' 
WAVCIS,ioos:station:WAVCIS:CSI09:1,2010-08-07T22:00:00Z,29.1015,-89.9782,0.0,4.529,227.0,,'11111222,11111222,99999999' 
WAVCIS,ioos:station:WAVCIS:CSI09:1,2010-08-07T23:00:00Z,29.1015,-89.9782,0.0,4.674,228.0,,'11111222,11111222,99999999' 
WAVCIS,ioos:station:WAVCIS:CSI09:1,2010-08-08T00:00:00Z,29.1015,-89.9782,0.0,5.551,237.0,,'11111222,11111222,99999999' 
WAVCIS,ioos:station:WAVCIS:CSI09:1,2010-08-08T01:00:00Z,29.1015,-89.9782,0.0,5.031,235.0,,'11111222,11111222,99999999' 
WAVCIS,ioos:station:WAVCIS:CSI09:1,2010-08-08T02:00:00Z,29.1015,-89.9782,0.0,6.122,238.0,,'11111222,11111222,99999999' 
WAVCIS,ioos:station:WAVCIS:CSI09:1,2010-08-08T03:00:00Z,29.1015,-89.9782,0.0,5.881,234.0,,'11111222,11111222,99999999' 
WAVCIS,ioos:station:WAVCIS:CSI09:1,2010-08-08T04:00:00Z,29.1015,-89.9782,0.0,5.882,231.0,,'11111222,11111222,99999999' 
WAVCIS,ioos:station:WAVCIS:CSI09:1,2010-08-08T05:00:00Z,29.1015,-89.9782,0.0,6.186,231.0,,'11111222,11111222,99999999' 
WAVCIS,ioos:station:WAVCIS:CSI09:1,2010-08-08T06:00:00Z,29.1015,-89.9782,0.0,6.542,229.0,,'11111222,11111222,99999999' 
WAVCIS,ioos:station:WAVCIS:CSI09:1,2010-08-08T07:00:00Z,29.1015,-89.9782,0.0,5.672,242.0,,'11111222,11111222,99999999' 
WAVCIS,ioos:station:WAVCIS:CSI09:1,2010-08-08T08:00:00Z,29.1015,-89.9782,0.0,5.686,253.0,,'11111222,11111222,99999999' 
WAVCIS,ioos:station:WAVCIS:CSI09:1,2010-08-08T09:00:00Z,29.1015,-89.9782,0.0,5.714,261.0,,'11111222,11111222,99999999' 
WAVCIS,ioos:station:WAVCIS:CSI09:1,2010-08-08T10:00:00Z,29.1015,-89.9782,0.0,6.021,262.0,,'11111222,11111222,99999999' 
WAVCIS,ioos:station:WAVCIS:CSI09:1,2010-08-08T11:00:00Z,29.1015,-89.9782,0.0,5.038,259.0,,'11111222,11111222,99999999' 
WAVCIS,ioos:station:WAVCIS:CSI09:1,2010-08-08T12:00:00Z,29.1015,-89.9782,0.0,3.421,318.0,,'11111222,11111222,99999999' 
WAVCIS,ioos:station:WAVCIS:CSI09:1,2010-08-08T13:00:00Z,29.1015,-89.9782,0.0,6.448,272.0,,'11111222,11111222,99999999' 
WAVCIS,ioos:station:WAVCIS:CSI09:1,2010-08-08T14:00:00Z,29.1015,-89.9782,0.0,4.16,272.0,,'11111222,11111222,99999999' 
WAVCIS,ioos:station:WAVCIS:CSI09:1,2010-08-08T15:00:00Z,29.1015,-89.9782,0.0,2.468,300.0,,'11111222,11111222,99999999' 
WAVCIS,ioos:station:WAVCIS:CSI09:1,2010-08-08T16:00:00Z,29.1015,-89.9782,0.0,0.913,299.0,,'11111222,11111222,99999999' 
WAVCIS,ioos:station:WAVCIS:CSI09:1,2010-08-08T17:00:00Z,29.1015,-89.9782,0.0,0.897,48.0,,'11111222,11111222,99999999' 
WAVCIS,ioos:station:WAVCIS:CSI09:1,2010-08-08T18:00:00Z,29.1015,-89.9782,0.0,0.374,198.0,,'11111222,11111222,99999999' 
WAVCIS,ioos:station:WAVCIS:CSI09:1,2010-08-08T19:00:00Z,29.1015,-89.9782,0.0,0.883,156.0,,'11111222,11111222,99999999' 
WAVCIS,ioos:station:WAVCIS:CSI09:1,2010-08-08T20:00:00Z,29.1015,-89.9782,0.0,3.741,172.0,,'11111222,11111222,99999999' 
WAVCIS,ioos:station:WAVCIS:CSI09:1,2010-08-08T21:00:00Z,29.1015,-89.9782,0.0,3.113,220.0,,'11111222,11111222,99999999' 
WAVCIS,ioos:station:WAVCIS:CSI09:1,2010-08-08T22:00:00Z,29.1015,-89.9782,0.0,5.049,225.0,,'11111222,11111222,99999999' 
WAVCIS,ioos:station:WAVCIS:CSI09:1,2010-08-08T23:00:00Z,29.1015,-89.9782,0.0,3.821,219.0,,'11111222,11111222,99999999' 
WAVCIS,ioos:station:WAVCIS:CSI09:1,2010-08-09T00:00:00Z,29.1015,-89.9782,0.0,4.451,240.0,,'11111222,11111222,99999999' 
WAVCIS,ioos:station:WAVCIS:CSI09:1,2010-08-09T01:00:00Z,29.1015,-89.9782,0.0,4.688,249.0,,'11111222,11111222,99999999' 
WAVCIS,ioos:station:WAVCIS:CSI09:1,2010-08-09T02:00:00Z,29.1015,-89.9782,0.0,5.041,245.0,,'11111222,11111222,99999999' 
WAVCIS,ioos:station:WAVCIS:CSI09:1,2010-08-09T03:00:00Z,29.1015,-89.9782,0.0,3.935,266.0,,'11111222,11111222,99999999' 
WAVCIS,ioos:station:WAVCIS:CSI09:1,2010-08-09T04:00:00Z,29.1015,-89.9782,0.0,3.666,257.0,,'11111222,11111222,99999999' 
WAVCIS,ioos:station:WAVCIS:CSI09:1,2010-08-09T05:00:00Z,29.1015,-89.9782,0.0,3.067,243.0,,'11111222,11111222,99999999' 
WAVCIS,ioos:station:WAVCIS:CSI09:1,2010-08-09T06:00:00Z,29.1015,-89.9782,0.0,2.992,232.0,,'11111222,11111222,99999999' 